Regional Weather Roundup
Issued by NWS

Home | Current Version | Previous Version | Text Only | Print | Product List | Glossary Off
Versions: 1 2 3 4 5 6 7 8 9 10 11 12 13 14 15 16 17 18 19 20 21 22 23 24 25 26 27 28 29 30 31 32 33 34 35 36 37 38 39 40 41 42 43 44 45 46 47 48 49 50

000
ASUS43 KOAX 302010
RWRNE

WEATHER ROUNDUP FOR NEBRASKA
NATIONAL WEATHER SERVICE OMAHA NE
300 PM CDT MON MAR 30 2015

NOTES: SATELLITE DATA IS BEING USED TO AUGMENT CLOUD COVER ABOVE
       12000 FEET.
       "FAIR" INDICATES FEW OR NO CLOUDS BELOW 12,000 FEET WITH NO
       SIGNIFICANT WEATHER AND/OR OBSTRUCTIONS TO VISIBILITY.

  * THESE STATIONS DO NOT REPORT WEATHER SUCH AS RAIN...SNOW OR FOG.

NEZ001>004-019>022-054>056-302100-
NEBRASKA PANHANDLE

CITY           SKY/WX    TMP DP  RH WIND       PRES   REMARKS
SCOTTSBLUFF    SUNNY     71  26  18 NW12G22   30.10F
ALLIANCE       MOSUNNY   70  25  18 NW18G25   30.08F
CHADRON        MOSUNNY   69  28  21 NW15G29   30.06F
KIMBALL        SUNNY     66  20  17 NW8G18    30.12F
SIDNEY         SUNNY     71  25  17 N15       30.11F
$$

NEZ057>060-069>072-079>082-302100-
SOUTHWEST NEBRASKA

CITY           SKY/WX    TMP DP  RH WIND       PRES   REMARKS
NORTH PLATTE   SUNNY     77  22  13 N12       29.99F
IMPERIAL         N/A     76  18  11 N12G20    30.03F
LEXINGTON      SUNNY     76  25  14 NW7G17    29.98F
MCCOOK         SUNNY     79  22  12 N9G22     29.99F
OGALLALA       SUNNY     75  23  14 NW17      30.04F
$$

NEZ005>010-023>029-035>040-094-302100-
NORTH CENTRAL NEBRASKA

CITY           SKY/WX    TMP DP  RH WIND       PRES   REMARKS
VALENTINE      MOSUNNY   71  27  19 NW20G29   30.01F
AINSWORTH      MOSUNNY   72  26  18 NW14G26   30.00F
BROKEN BOW     MOSUNNY   77  25  14 NW9G18    29.98F
O`NEILL        SUNNY     75  26  16 NW20G30   29.95F
ORD            MOSUNNY   75  22  13 NW16G24   29.96F
THEDFORD       PTSUNNY   74  26  16 NW18      30.01F
$$

NEZ041-046>049-061>064-073>077-083>087-302100-
SOUTH CENTRAL NEBRASKA

CITY           SKY/WX    TMP DP  RH WIND       PRES   REMARKS
GRAND ISLAND   FAIR      75  27  17 W15       29.98F
AURORA         FAIR      74  28  17 W16G22    29.97F
HASTINGS       FAIR      75  30  19 W17G25    29.96F
HEBRON         FAIR      75  28  17 SW17G26   29.98F
HOLDREGE       FAIR      76  24  14 NW12      29.97F
KEARNEY *      FAIR      73  27  17 W9        29.98F
YORK           FAIR      73  32  21 W15G25    29.97F
$$

NEZ011>018-030>034-042>045-302100-
NORTHEAST NEBRASKA

CITY           SKY/WX    TMP DP  RH WIND       PRES   REMARKS
NORFOLK        FAIR      76  26  15 W17       29.92F
ALBION         FAIR      77  21  12 NW15G22   29.94F
BLAIR          FAIR      76  27  16 SW22G33   29.93F
COLUMBUS *     FAIR      75  28  17 SW13G20   29.96F
FREMONT        FAIR      77  28  16 W21G26    29.94F
TEKAMAH        FAIR      80  27  14 SW25G35   29.90F
WAYNE          FAIR      78  24  13 W17G30    29.90F
$$

NEZ050>053-065>068-078-088>093-302100-
SOUTHEAST NEBRASKA

CITY           SKY/WX    TMP DP  RH WIND       PRES   REMARKS
LINCOLN        FAIR      76  30  18 W22G31    29.98F
OMAHA EPPLEY   PTSUNNY   76  29  17 SW22G30   29.93F
BEATRICE       FAIR      74  32  21 SW17G28   29.97F
FALLS CITY     FAIR      75  27  17 S15       30.00F
NEBRASKA CITY  FAIR      74  18  12 W22G31    29.97F
PLATTSMOUTH    FAIR      75  19  12 SW17G28   29.97F
$$

NEZ044-045-051>053-067-302100-
OMAHA AREA

CITY           SKY/WX    TMP DP  RH WIND       PRES   REMARKS
OMAHA EPPLEY   PTSUNNY   76  29  17 SW22G30   29.93F
BLAIR          FAIR      76  27  16 SW22G33   29.93F
FREMONT        FAIR      77  28  16 W21G26    29.94F
MILLARD        FAIR      75  31  20 W15G26    29.94F
OFFUTT AFB     FAIR      75  29  18 SW18G29   29.94F
PLATTSMOUTH    FAIR      75  19  12 SW17G28   29.97F
WAHOO          FAIR      76  23  14 SW18G30   29.94F
$$


USA.gov is the U.S. government's official web portal to all federal, state and local government web resources and services.